RH
12 12 12 11 11 11 11 10 10 10 9 9 8 7 7 8 10 14 20 23 23 27 32 35 38 37 36 34 32 31 30 34 37 37 36 33 33 40 42 40 43 46 49 53 56
12 11 11 11 11 10 10 10 10 10 10 9 8 7 7 7 6 10 13 19 20 24 30 34 35 34 36 31 29 28 28 28 32 34 32 31 30 35 38 41 43 43 45 49 53
11 11 11 10 10 10 10 9 9 9 9 9 8 7 7 7 6 6 10 12 19 21 30 33 32 31 28 28 25 25 28 25 31 34 33 29 29 30 32 37 38 37 38 43 48
10 10 10 10 10 10 10 9 9 9 9 9 8 7 8 8 5 7 10 10 17 20 28 30 31 30 28 26 23 28 27 24 32 36 35 30 28 27 29 30 33 34 39 41 44
9 9 9 9 9 9 9 9 8 8 8 9 8 7 8 8 6 7 9 10 16 19 28 29 30 30 27 23 22 25 28 25 32 40 39 37 33 28 26 26 31 35 37 40 43
10 9 8 8 9 9 9 9 8 8 8 8 8 7 8 8 5 6 8 11 13 19 25 27 29 28 28 21 21 27 29 30 35 42 41 39 38 33 26 25 28 33 34 35 37
13 10 9 8 8 9 9 8 8 8 8 8 8 7 8 8 6 8 10 9 12 18 24 25 28 27 26 20 22 30 33 33 39 43 44 42 42 40 29 27 25 30 32 32 32
16 16 12 10 8 7 8 8 8 8 8 7 7 7 7 8 6 8 11 9 8 15 23 22 24 23 25 22 25 29 32 33 38 39 43 42 43 46 39 32 26 25 29 30 28
17 15 15 14 11 9 7 7 8 8 8 8 7 8 8 8 6 8 13 11 8 14 21 24 23 22 25 23 27 27 27 31 37 38 41 41 42 48 46 42 34 26 24 27 29
18 18 16 14 15 12 9 7 6 8 10 10 9 9 7 9 8 11 13 11 7 12 19 22 24 23 23 23 23 25 27 30 34 37 39 43 42 46 47 47 40 34 25 23 26
18 18 17 16 14 14 13 8 8 9 10 10 11 8 8 10 9 12 13 13 7 10 16 19 21 20 22 24 24 24 23 26 31 37 39 40 41 43 45 47 46 41 32 22 22
18 17 17 16 16 14 14 13 10 9 8 8 8 9 8 10 10 11 12 12 7 6 11 16 18 22 26 25 25 26 26 26 30 34 36 38 38 37 42 42 47 42 37 27 23
17 17 17 16 16 16 14 16 14 12 11 7 8 7 7 8 10 11 12 10 7 6 8 12 16 21 25 26 24 24 25 28 29 28 33 35 32 33 34 39 43 48 40 35 32
18 17 17 17 16 16 17 15 15 14 15 10 8 8 8 7 9 11 13 10 7 6 7 11 15 21 23 25 22 24 25 27 28 27 25 28 22 29 32 37 38 43 43 38 36
19 18 17 17 17 16 17 16 15 18 16 11 10 9 9 8 7 10 12 12 7 7 7 7 13 19 22 23 22 22 25 27 29 29 30 31 25 25 32 36 34 35 39 39 38
19 18 18 17 17 17 18 17 17 21 21 12 11 11 11 10 10 11 13 13 9 7 7 7 9 16 21 24 25 25 26 27 29 29 26 27 24 23 29 27 28 30 31 34 37
20 19 18 18 17 17 18 18 19 22 17 13 12 12 12 11 11 12 13 14 11 9 8 8 8 11 17 22 25 25 26 29 29 28 26 27 29 21 22 24 24 25 27 28 32
20 20 19 18 18 17 19 19 21 18 17 16 13 13 13 12 10 12 13 16 14 8 8 8 8 9 11 15 20 23 25 28 32 28 26 28 25 18 20 21 22 24 25 27 28
20 19 19 19 19 19 21 21 17 18 17 17 16 15 12 13 12 12 13 12 14 10 6 8 8 8 10 12 17 22 23 24 26 28 26 20 19 18 19 20 21 21 23 25 25
17 18 19 22 24 24 20 19 19 17 18 18 18 16 14 13 15 13 14 13 13 13 9 8 8 7 8 10 12 17 20 21 25 26 26 20 21 18 18 18 19 21 22 23 24
18 16 20 24 26 27 22 19 20 19 19 20 18 18 17 15 14 15 13 11 13 12 13 10 9 11 9 9 9 12 15 19 21 24 25 22 17 17 17 17 17 19 22 24 24
20 18 22 27 31 30 27 25 20 19 20 20 20 18 18 16 14 14 15 15 12 13 15 14 13 12 11 9 10 9 10 16 19 27 25 22 17 16 15 16 18 19 24 25 26
26 21 18 25 30 30 33 31 25 22 20 21 20 19 19 18 18 14 14 14 17 15 16 17 18 17 13 13 12 12 12 13 18 23 25 23 18 15 14 16 17 20 23 24 27
32 25 25 30 35 37 41 35 32 27 23 23 22 21 19 19 19 17 15 16 18 20 18 19 20 19 14 13 12 13 13 13 14 17 18 18 16 15 15 14 15 19 21 23 25
41 37 39 39 47 44 46 44 41 36 32 29 25 24 22 20 20 19 17 17 18 19 20 17 19 19 16 16 16 14 12 12 13 12 15 14 15 12 15 15 16 19 20 22 24
51 47 46 40 37 44 49 51 51 47 42 35 36 36 30 26 22 21 19 18 20 22 21 21 19 19 16 14 16 16 14 14 13 13 13 12 14 13 14 16 18 17 20 21 21
58 59 57 49 44 40 40 58 57 57 50 47 47 41 39 37 34 29 26 21 20 25 25 22 23 24 21 18 18 20 14 13 12 13 13 14 13 12 15 16 19 18 20 19 21